User: anonymous   Login
Location: Unspecified
(0.0000°N, 0.0000°E)
Time: 21:29:09
(UTC+00:00)
Language:

ONEWEB-0509 - Orbit

View from above orbital plane
View from above orbital plane
View from above satellite
View from above satellite

Ground track
Ground track

The orbit is defined by the following mean orbital elements,

1 54127U          26145.42272142 +.00000000 +00000-0 +16236-3 0 00005
2 54127  87.9161 309.5010 0001702  90.4594 269.6733 13.19726060    03
Epoch (UTC): 25 May 2026 10:08:43
Eccentricity: 0.0001702
inclination: 87.9161°
perigee height: 1184 km
apogee height: 1187 km
right ascension of ascending node: 309.5010°
argument of perigee: 90.4594°
revolutions per day: 13.19726060
mean anomaly at epoch: 269.6733°

The dashed part of the orbit path shows where the satellite is in the earth's shadow,  

DLR